Location: Contre
(49.7477°N, 2.0963°E)
Time: 09:59:21
(UTC+00:00)

METEOR 2-5 DEB - Pass Details

Date: 01 March 2024
Orbit: 788 x 800 km, 81.2° (Epoch: 09 April)

Event Time Altitude Azimuth Distance (km) Brightness Sun altitude
Rises 04:49:12 0° 155° (SSE) 3,278 ? -17.7°
Reaches altitude 10° 04:51:53 10° 144° (SE) 2,356 ? -17.2°
Maximum altitude 04:56:15 27° 88° (E) 1,505 ? -16.5°
Drops below altitude 10° 05:00:39 10° 33° (NNE) 2,379 ? -15.8°
Sets 05:03:21 0° 21° (NNE) 3,317 ? -15.4°
